Regional Weather Roundup
Issued by NWS

Home | Current Version | Previous Version | Text Only | Print | Product List | Glossary On
Versions: 1 2 3 4 5 6 7 8 9 10 11 12 13 14 15 16 17 18 19 20 21 22 23 24 25 26 27 28 29 30 31 32 33 34 35 36 37 38 39 40 41 42 43 44 45 46 47 48 49 50
000
ASUS43 KTOP 162259
RWRKS

WEATHER ROUNDUP FOR KANSAS
NATIONAL WEATHER SERVICE GOODLAND KS
600 PM CDT MON OCT 16 2017

NOTE:  "FAIR" INDICATES FEW OR NO CLOUDS BELOW 12,000 FEET WITH NO
SIGNIFICANT WEATHER AND/OR OBSTRUCTIONS TO VISIBILITY.

KSZ001>006-013>018-027>032-041>047-170000-
NORTHWEST KANSAS

CITY           SKY/WX    TMP DP  RH WIND       PRES   REMARKS
GOODLAND       CLOUDY    73  32  22 S14       30.11S
HAYS           CLEAR     72  35  25 S16       30.15F
HILL CITY      SUNNY     74  33  22 S13G26    30.13S
RUSSELL        CLEAR     71  36  27 S20G28    30.15F
$$

KSZ061>065-074>080-084>089-170000-
SOUTHWEST KANSAS

CITY           SKY/WX    TMP DP  RH WIND       PRES   REMARKS
DODGE CITY     SUNNY     71  31  22 S20G26    30.19F
ELKHART          N/A     73  36  26 S13         N/A
GARDEN CITY    SUNNY     72  33  24 S20       30.16F
LIBERAL        SUNNY     71  36  27 S16       30.19F
$$

KSZ066>073-081>083-090>101-170000-
SOUTHEAST KANSAS

CITY           SKY/WX    TMP DP  RH WIND       PRES   REMARKS
CHANUTE        CLEAR     65  40  39 S8        30.28F
COFFEYVILLE    CLEAR     66  40  38 S5        30.28F
HUTCHINSON     CLEAR     69  37  30 S16       30.21F
MEDICINE LODGE   N/A     69  35  28 S13G21    30.22F
NEWTON         CLEAR     65  38  36 S14       30.25F
PARSONS        CLEAR     66  39  37 VRB5      30.29F
WICHITA INTL   PTCLDY    66  39  37 S13       30.25F
WICHITA JABRA  CLEAR     65  38  36 S13       30.25F
WICHITA MCCONL CLEAR     66  37  34 SW14      30.26F
WINFIELD       CLEAR     65  40  39 S9        30.28F
$$

KSZ007>012-019>026-033>040-048>060-102>105-170000-
NORTHEAST KANSAS

CITY           SKY/WX    TMP DP  RH WIND       PRES   REMARKS
CONCORDIA      CLEAR     69  38  32 S14       30.16F
EMPORIA        CLEAR     66  39  37 S10       30.25F
LAWRENCE       CLEAR     67  41  38 S10       30.24F
MANHATTAN      CLEAR     69  39  33 SW14      30.20F
OLATHE IND     CLEAR     64  40  41 S10       30.26F
OLATHE EXE     CLEAR     64  40  41 SW7       30.25F
SALINA         CLEAR     70  40  33 S10G21    30.20F
TOPEKA BILLARD CLEAR     69  40  34 S9        30.22F
TOPEKA FORBES  CLEAR     69  40  34 S9        30.23F
$$




USA.gov is the U.S. government's official web portal to all federal, state and local government web resources and services.